Weather History for KGAD - October, 2012

Change the Weather History Date:

Friday, October 19, 2012

  Actual Average Record
Temperature  
Mean Temperature 45 °F -  
Max Temperature 55 °F 70 °F 89 °F (1938)
Min Temperature 39 °F 46 °F 27 °F (1948)
Degree Days  
Heating Degree Days 20    
Moisture  
Dew Point 40 °F    
Average Humidity 83    
Maximum Humidity 93    
Minimum Humidity 63    
Precipitation  
Precipitation 0.00 in - - ()
Sea Level Pressure  
Sea Level Pressure 29.84 in    
Wind  
Wind Speed 3 mph (WSW)    
Max Wind Speed 6 mph    
Max Gust Speed -    
Visibility 10 miles    
Events      
Averages and records for this station are not official NWS values.
T = Trace of Precipitation, MM = Missing Value Source: NWS Daily Summary

Daily Weather History Graph

Daily Weather History Graph

Search for Another Location

Airport or City:

Trip Planner

Search our weather history database for the weather conditions in past years. The results will help you decide how hot, cold, wet, or windy it might be!

Date:

Astronomy

Oct. 19, 2012 Rise Set
Actual Time 6:53 AM CDT 6:04 PM CDT
Civil Twilight 6:27 AM CDT 6:30 PM CDT
Nautical Twilight 5:58 AM CDT 6:59 PM CDT
Astronomical Twilight 5:29 AM CDT 7:28 PM CDT
Moon 11:26 AM CDT (10/19) 9:51 PM CDT (10/19)
Length of Visible Light 12h 02m
Length of Day
11h 11m
Waxing Crescent, 24% of the Moon is Illuminated
Oct 19
Waxing Crescent
Oct 21
First Quarter
Oct 29
Full
Nov 6
Last Quarter
Nov 13
New

Hourly Weather History & Observations

Time (CDT) Temp. Windchill Dew Point Humidity Pressure Visibility Wind Dir Wind Speed Gust Speed Precip Events Conditions
12:15 AM 46.4 °F 43.5 °F 42.8 °F 87% 29.86 in 10.0 mi WSW 5.8 mph - N/A   Clear
12:35 AM 46.4 °F 44.3 °F 41.0 °F 81% 29.86 in 10.0 mi SW 4.6 mph - N/A   Clear
12:55 AM 46.4 °F 44.3 °F 41.0 °F 81% 29.85 in 10.0 mi WSW 4.6 mph - N/A   Clear
1:15 AM 46.4 °F 44.3 °F 39.2 °F 76% 29.85 in 10.0 mi West 4.6 mph - N/A   Clear
1:55 AM 44.6 °F 41.4 °F 39.2 °F 81% 29.84 in 10.0 mi West 5.8 mph - N/A   Clear
2:15 AM 46.4 °F 43.5 °F 39.2 °F 76% 29.84 in 10.0 mi WSW 5.8 mph - N/A   Clear
2:35 AM 46.4 °F - 39.2 °F 76% 29.84 in 10.0 mi Calm Calm - N/A   Clear
2:55 AM 44.6 °F - 39.2 °F 81% 29.84 in 10.0 mi Calm Calm - N/A   Clear
3:15 AM 44.6 °F - 39.2 °F 81% 29.83 in 10.0 mi Calm Calm - N/A   Clear
3:35 AM 44.6 °F - 39.2 °F 81% 29.83 in 10.0 mi Calm Calm - N/A   Clear
4:15 AM 42.8 °F - 39.2 °F 87% 29.83 in 10.0 mi Calm Calm - N/A   Clear
4:35 AM 42.8 °F - 39.2 °F 87% 29.83 in 10.0 mi Calm Calm - N/A   Clear
4:55 AM 42.8 °F - 39.2 °F 87% 29.83 in 10.0 mi Calm Calm - N/A   Clear
5:15 AM 42.8 °F - 37.4 °F 81% 29.83 in 10.0 mi Calm Calm - N/A   Clear
5:35 AM 41.0 °F - 37.4 °F 87% 29.83 in 10.0 mi Calm Calm - N/A   Clear
5:55 AM 39.2 °F - 37.4 °F 93% 29.83 in 10.0 mi Calm Calm - N/A   Clear
6:15 AM 39.2 °F - 37.4 °F 93% 29.83 in 10.0 mi Calm Calm - N/A   Clear
6:35 AM 41.0 °F - 37.4 °F 87% 29.83 in 10.0 mi Calm Calm - N/A   Clear
6:55 AM 39.2 °F - 37.4 °F 93% 29.83 in 10.0 mi Calm Calm - N/A   Clear
7:15 AM 41.0 °F - 37.4 °F 87% 29.83 in 10.0 mi Calm Calm - N/A   Clear
7:35 AM 41.0 °F - 39.2 °F 93% 29.83 in 10.0 mi Calm Calm - N/A   Clear
7:55 AM 44.6 °F - 41.0 °F 87% 29.83 in 10.0 mi Calm Calm - N/A   Clear
8:15 AM 46.4 °F - 41.0 °F 81% 29.83 in 10.0 mi Calm Calm - N/A   Clear
8:35 AM 50.0 °F - 42.8 °F 76% 29.84 in 10.0 mi Calm Calm - N/A   Clear
8:55 AM 51.8 °F - 42.8 °F 71% 29.84 in 10.0 mi Calm Calm - N/A   Clear
9:15 AM 55.4 °F - 42.8 °F 63% 29.83 in 10.0 mi SW 4.6 mph - N/A   Clear